This demonstration page uses our WeatherBlox Daily Observations layout. Learn more.

Left ArrowRight Arrow

Hourly Observations for July 26, 2018

Temp ( °F °C ) Dew Point ( °F °C ) Humidity (%) Winds ( mph kmh ) Pressure ( in mb ) Visibility ( mi km ) Precip ( " mm )
12:53 am 00:53 Clear 82 27.8 60 15.6 47 47 SE 8 13 29.87 1012 10 16 0.00 0.00
1:53 am 01:53 Clear 81 27.2 60 15.6 49 49 SE 10 17 29.86 1011 10 16 0.00 0.00
2:53 am 02:53 Clear 80 26.7 61 16.1 52 52 SE 8 13 29.86 1011 10 16 0.00 0.00
3:53 am 03:53 Clear 79 26.1 60 15.6 52 52 ESE 8 13 29.87 1012 10 16 0.00 0.00
4:53 am 04:53 Clear 78 25.6 60 15.6 54 54 ESE 10 17 29.87 1012 10 16 0.00 0.00
5:53 am 05:53 Clear 77 25 60 15.6 56 56 ESE 9 15 29.87 1011 10 16 0.00 0.00
6:53 am 06:53 Clear 76 24.4 60 15.6 58 58 ESE 10 17 29.87 1011 10 16 0.00 0.00
7:53 am 07:53 Sunny 76 24.4 60 15.6 58 58 ESE 10 17 29.89 1012 10 16 0.00 0.00
8:53 am 08:53 Sunny 81 27.2 60 15.6 49 49 SE 13 20 29.91 1013 10 16 0.00 0.00
9:53 am 09:53 Sunny 87 30.6 60 15.6 40 40 SSE 14 22 29.92 1013 10 16 0.00 0.00
10:53 am 10:53 Sunny 91 32.8 61 16.1 37 37 ESE 10 17 29.91 1013 10 16 0.00 0.00
11:53 am 11:53 Partly Cloudy 92 33.3 61 16.1 36 36 E 8 13 29.96 1014 10 16 0.00 0.00
12:15 pm 12:15 Mostly Cloudy 86 30 61 16.1 43 43 NNE 25 41 29.91 1013 10 16 0.00 0.00
12:53 pm 12:53 Mostly Sunny 93 33.9 61 16.1 34 34 NE 23 37 29.95 1014 10 16 0.00 0.00
1:53 pm 13:53 Sunny 92 33.3 61 16.1 36 36 NE 23 37 29.92 1013 10 16 0.00 0.00
2:53 pm 14:53 Sunny 96 35.6 61 16.1 31 31 NE 15 24 29.91 1013 10 16 0.00 0.00
3:53 pm 15:53 Sunny 95 35 60 15.6 31 31 SE 9 15 29.87 1012 10 16 0.00 0.00
4:53 pm 16:53 Sunny 98 36.7 56 13.3 24 24 E 14 22 29.85 1011 10 16 0.00 0.00
5:53 pm 17:53 Mostly Cloudy 99 37.2 52 11.1 21 21 E 12 19 29.84 1011 10 16 0.00 0.00
6:53 pm 18:53 Partly Cloudy 95 35 55 12.8 26 26 NE 10 17 29.84 1011 10 16 0.00 0.00
7:53 pm 19:53 Sunny 95 35 53 11.7 24 24 ESE 13 20 29.84 1010 10 16 0.00 0.00
8:53 pm 20:53 Mostly Sunny 91 32.8 51 10.6 26 26 ESE 7 11 29.84 1011 10 16 0.00 0.00
9:53 pm 21:53 Mostly Cloudy 88 31.1 50 10 27 27 E 8 13 29.85 1011 10 16 0.00 0.00
10:53 pm 22:53 Mostly Clear 87 30.6 52 11.1 30 30 E 8 13 29.88 1012 10 16 0.00 0.00
11:53 pm 23:53 Clear 84 28.9 58 14.4 41 41 E 13 20 29.90 1013 10 16 0.00 0.00

Powered by AerisWeather